Date,TemperatureHighF,TemperatureAvgF,TemperatureLowF,DewpointHighF,DewpointAvgF,DewpointLowF,HumidityHigh,HumidityAvg,HumidityLow,PressureMaxIn,PressureMinIn,WindSpeedMaxMPH,WindSpeedAvgMPH,GustSpeedMaxMPH,PrecipitationSumIn
2013-4-1,69.5,53.2,41.4,42.7,29.7,8.1,99,48,11,30.18,30.02,19,3,0,0.00
2013-4-2,67.5,50.8,37.1,41.3,26.6,0.7,100,50,8,30.22,30.13,17,3,0,0.00
2013-4-3,67.5,52.8,35.9,38.9,19.7,-8.3,100,41,5,30.22,30.02,12,2,0,0.00
2013-4-4,63.9,51.7,44.2,40.0,31.1,17.8,72,46,17,30.03,29.75,23,4,0,0.08
2013-4-5,58.7,49.3,43.5,34.5,26.4,14.0,69,42,20,30.03,29.95,22,7,0,0.00
2013-4-6,55.8,46.5,40.6,36.0,25.1,8.5,83,44,18,30.04,29.85,25,7,0,0.04
2013-4-7,50.3,42.5,35.1,38.2,22.2,5.0,89,46,20,29.95,29.71,32,8,0,0.00
2013-4-8,52.4,40.7,30.1,27.6,14.2,-4.0,85,39,11,30.27,29.95,26,7,0,0.00
2013-4-9,62.0,44.7,27.1,30.6,14.9,-12.7,100,43,6,30.38,30.23,9,2,0,0.00
2013-4-10,60.8,50.9,40.4,32.7,20.6,-4.1,60,32,8,30.26,30.13,29,8,0,0.00
2013-4-11,57.4,41.7,29.4,29.8,16.8,-8.8,97,44,8,30.31,30.16,21,4,0,0.00
2013-4-12,61.8,45.0,29.3,31.7,15.5,-11.0,100,44,6,30.19,29.81,35,5,0,0.00
2013-4-13,48.1,41.2,34.8,22.5,5.5,-17.2,42,25,7,30.11,29.82,30,10,0,0.00
2013-4-14,49.0,37.6,31.1,28.5,14.4,-15.7,77,43,9,30.12,29.91,17,4,0,0.00
2013-4-15,48.5,35.9,32.0,31.7,25.3,2.2,95,68,19,30.18,29.95,22,4,0,0.00
2013-4-16,49.4,38.0,30.7,30.8,18.4,-11.3,94,53,9,30.38,30.17,23,5,0,0.00
2013-4-17,56.6,41.2,27.7,28.0,10.5,-15.3,81,38,7,30.48,30.36,22,4,20,0.00
2013-4-18,64.3,48.7,35.8,27.1,18.7,-2.7,61,34,10,30.43,30.28,14,3,7,0.00
2013-4-19,61.2,51.4,43.4,30.8,24.3,11.0,52,36,17,30.29,30.15,30,9,0,0.00
2013-4-20,62.4,49.3,39.9,29.5,16.9,-3.8,62,31,9,30.27,30.18,21,6,0,0.00
2013-4-21,64.5,47.7,33.6,35.8,22.6,0.6,95,44,10,30.26,30.16,24,5,0,0.00
2013-4-22,55.9,45.0,35.2,31.1,7.5,-15.8,83,29,7,30.44,30.25,29,6,0,0.00
2013-4-23,65.7,45.8,26.5,17.1,1.0,-16.3,60,22,5,30.45,30.15,17,4,0,0.00
2013-4-24,71.0,50.7,32.4,17.9,0.4,-14.3,50,17,5,30.36,30.07,11,2,0,0.00
2013-4-25,74.1,56.0,37.0,20.5,7.3,-11.0,50,19,4,30.18,30.05,27,5,0,0.00
2013-4-26,81.9,60.6,40.3,28.4,9.7,-10.4,61,20,4,30.27,30.17,17,4,0,0.00
2013-4-27,72.5,59.4,43.1,25.3,8.0,-8.4,48,17,5,30.28,30.16,26,7,0,0.00
2013-4-28,65.8,54.5,42.6,27.5,10.1,-9.3,52,20,6,30.22,30.10,26,7,0,0.00
2013-4-29,59.2,50.8,38.1,27.5,9.0,-13.9,41,22,6,30.16,30.02,29,9,0,0.00
2013-4-30,53.4,40.7,29.0,22.3,4.4,-17.6,74,28,6,30.42,30.16,27,8,0,0.00